Location: Béaulencourt
(50.0796°N, 2.8795°E)
Time: 00:02:20
(UTC+00:00)

Cosmos 1295 Rocket - Pass Details

Date: 20 January 2026
Orbit: 942 x 994 km, 82.9° (Epoch: 9 February)

Event Time Altitude Azimuth Distance (km) Brightness Sun altitude
Rises 04:43:09 0° 185° (S) 3,693 7.5 -27.4°
Reaches altitude 10° 04:45:40 10° 185° (S) 2,745 6.8 -27.0°
Maximum altitude 04:51:59 86° 97° (E) 993 4.4 -26.0°
Drops below altitude 10° 04:58:17 10° 10° (N) 2,735 6.9 -25.0°
Sets 05:00:47 0° 11° (N) 3,679 7.6 -24.6°
